ATLAS CENTAUR 2 DEB, 2886

Orbit data source: Space-Track

ATLAS CENTAUR 2 DEB, 2886 is space debris in LEO originally from a launch on Wed, 27 Nov 1963 UTC launched from the Air Force Eastern Test Range (AFETR). Debris objects in space refer to the collection of defunct objects orbiting the Earth. Examples of debris include non-operational satellites, rocket bodies, and fragments generated from explosions, collisions, or faulty payload assembly.

Loading next visibility...
Identifier
2886, 1963-047K
Orbit
LEO
Last TLE update
7 hours ago
Origin
Manufacturer
Unknown
Mission
Spacecraft
Bus & Motor
Unknown
Mass
Unknown
Launch date (UTC)
1963-11-27 (62 years ago)
Launch vehicle
Unknown
Launch site
Air Force Eastern Test Range (AFETR)
Object type
Payload
Rocket body
Debris
Shape & HBR
Unknown
Radar Cross Section
Small (<0.1 m²)

Expand to show TLE details & history

TLE from 7 hours ago
0 ATLAS CENTAUR 2 DEB
1  2886U 63047K   25182.46604530  .00000216  00000-0  11040-3 0  9998
2  2886  29.8712 104.2787 0643407  29.7739 333.7903 13.29874876829591
Epoch: 2025-07-01T11:11Z
TLE epoch observation values (Epoch: 2025-07-01T11:11:06.313Z)
Latitude
-0.00003°
Longitude
16.74124°
Altitude
718.087 km
Speed
7.708 km/s
True Right ascension
06h 57m 06s
True Declination
0° 00' 00"
Sunlit
Object was in daylight at epoch
Visualization orbit readout
Latitude
-20.14676°
Longitude
-125.11304°
Altitude
1,623.357 km
Speed
6.835 km/s
Apparent Right ascension
19h 54m 30s
Apparent Declination
-32° 25' 46"
Sunlit
Object is in full shadow
Visualization observer readout
Local Sidereal Time
05:21:34
Azimuth
271.546° WNW
Elevation
-58.494°
Doppler factor
1
Orbital elements
Apogee altitude
1,635.365 km
Perigee altitude
666.513 km
Semi-major axis
7,529.076 km
Eccentricity
0.06434
Inclination
29.8712°
RAAN
104.2787°
Arg. of periapsis
29.7739°
True anomaly
Unknown
Mean anomaly
333.7903°
Eccentric anomaly
Unknown
Mean motion
3.32224 °/min
Orbital period
108.36 mins
BSTAR
0.0001104
Loading maneuver chart data...
Loading SW <> Apogee altitude chart data...

ATLAS CENTAUR 2 DEB Visibility forecast

Observer location: undefined°, undefined°

Span
Click to sort rows by Start time (UTC) header in descending order
Start Az.
Max El. time (UTC)
Max El. Az.
Max El.
End time (UTC)
End Az.
7 mins2025-07-02 00:06:55.523Z206.491° SW2025-07-02 00:08:55.523Z173.582° S24.093°2025-07-02 00:13:55.523Z114.465° SE
9 mins2025-07-02 01:59:55.523Z235.098° WSW2025-07-02 02:03:55.523Z177.719° S26.844°2025-07-02 02:08:55.523Z128.135° SE
8 mins2025-07-02 03:54:55.523Z232.238° WSW2025-07-02 03:57:55.523Z201.006° SSW19.632°2025-07-02 04:02:55.523Z157.373° SSE
|